Wind_Speed
51 50 49 46 42 40 35 34 33 34 29 30 26 27 22 38 41 42 41 39 36 33 36 33 29 28 26 24 23 23 23 23 22 21 20 20 20 19 20 20 19 19 19 21
48 47 46 43 41 41 42 42 44 37 37 39 31 29 29 35 45 42 45 43 40 40 38 34 32 30 28 29 28 26 27 26 26 25 25 24 23 23 22 21 20 20 23 25
44 43 42 44 42 44 44 45 40 34 37 40 33 32 35 32 45 44 45 44 44 42 40 38 36 34 33 31 31 30 30 29 28 28 27 25 24 24 23 23 22 25 27 26
47 40 42 42 42 42 43 42 41 38 38 42 39 42 32 33 26 43 46 47 46 45 42 40 37 36 34 34 35 33 33 32 31 31 29 27 26 25 26 25 26 28 28 28
46 41 40 42 39 43 44 43 40 39 40 42 44 49 32 31 32 29 42 51 47 46 45 41 41 40 39 39 36 36 36 33 33 33 32 29 29 28 28 29 28 29 30 31
54 50 49 44 47 47 47 45 43 42 42 46 45 47 48 32 28 28 26 52 50 47 47 45 46 46 42 41 40 39 38 38 36 35 34 33 32 31 30 31 31 32 32 33
53 57 52 52 53 55 52 49 49 48 49 50 47 49 48 36 30 33 29 40 54 50 50 50 49 47 45 43 43 43 41 40 39 38 37 36 34 34 33 33 33 34 35 35
56 57 55 56 58 56 54 53 56 54 52 47 47 49 44 36 32 32 32 31 50 53 51 52 50 48 45 46 45 46 43 42 42 42 41 39 38 37 37 36 37 37 37 38
58 61 57 58 58 59 59 57 51 55 53 55 51 48 47 38 34 32 35 30 36 52 54 53 52 49 46 47 47 47 47 45 46 45 45 43 42 41 40 39 39 39 39 40
61 58 59 56 58 59 56 52 53 54 57 59 52 50 46 47 43 37 39 35 33 45 55 54 52 51 49 49 49 49 48 47 48 47 46 46 46 45 43 41 42 42 41 42
60 61 61 60 62 61 57 59 55 55 51 55 53 51 47 43 45 42 34 37 38 35 50 53 55 53 52 52 51 49 49 49 49 49 49 50 48 48 46 44 44 44 44 45
51 52 53 52 52 51 52 52 53 51 57 54 53 46 49 49 50 46 48 50 48 41 44 50 52 52 53 52 51 51 52 52 50 51 51 51 50 48 47 47 46 46 46 47
45 48 49 49 48 48 52 51 52 55 58 60 57 42 47 47 49 54 56 53 52 56 45 54 52 52 51 49 51 52 50 50 50 51 51 50 49 47 47 48 48 47 48 50
44 44 43 44 41 40 41 43 41 43 48 56 62 48 49 48 44 46 56 58 57 59 51 45 58 47 49 48 51 53 52 49 51 51 50 49 49 47 48 49 50 49 51 52
42 43 43 47 50 49 47 45 43 46 46 53 56 58 58 59 55 45 44 49 56 52 51 48 49 53 53 51 52 51 51 50 53 52 51 51 50 49 50 50 51 52 55 55
43 42 39 41 43 45 49 50 50 48 44 46 51 55 54 56 50 40 45 47 54 52 53 53 50 49 52 53 53 54 55 55 55 55 54 53 52 53 54 54 54 53 53 53
40 40 40 42 42 44 46 43 44 46 47 45 49 44 44 51 53 50 46 46 49 50 43 46 48 48 50 50 52 53 54 53 53 54 54 53 54 53 53 53 53 52 52 51
33 35 38 41 40 44 38 40 39 39 36 36 41 46 47 46 44 43 41 41 41 45 43 42 44 45 46 51 56 52 53 53 53 53 53 51 51 51 51 49 49 48 49 50
37 37 40 41 42 43 42 37 39 36 32 28 33 38 45 44 40 43 34 34 31 37 43 44 44 46 47 50 51 53 54 53 50 48 48 48 51 53 53 52 50 50 52 57
41 39 38 39 40 37 38 39 39 36 34 30 33 35 36 33 37 30 27 27 29 35 37 45 49 51 52 53 52 53 52 53 52 51 53 53 52 51 52 52 53 54 53 54
44 45 44 43 41 38 34 31 29 35 29 24 23 34 37 37 36 35 34 30 32 34 38 44 49 52 52 58 61 58 56 51 50 51 50 51 50 49 50 51 53 55 60 59
40 40 43 42 42 41 38 32 29 29 29 28 21 24 31 34 33 34 36 32 33 34 35 39 41 45 50 53 53 54 55 53 52 50 50 52 56 58 59 58 58 58 64 67
40 39 38 38 37 35 31 32 30 28 29 33 34 33 32 30 32 37 40 39 35 33 35 37 41 43 49 51 50 54 56 57 57 56 54 53 53 54 55 59 65 69 72 67
39 39 39 38 38 36 36 34 37 37 36 38 37 36 36 38 38 38 42 43 41 39 39 38 40 41 45 47 49 51 53 55 57 58 59 61 63 64 66 70 68 66 67 70
37 39 41 43 44 42 43 42 44 45 44 41 39 39 41 41 41 42 44 44 43 42 41 42 42 43 45 47 48 49 50 52 53 55 57 59 61 64 63 62 63 64 65 65
38 39 41 41 44 47 45 45 46 46 45 45 43 43 43 44 44 43 42 45 44 41 39 40 42 43 44 45 46 47 48 50 52 53 55 56 57 60 62 63 64 65 64 61
Wind_Direction
221 224 228 233 233 236 234 235 235 237 250 257 247 240 241 224 217 229 228 229 228 225 225 223 221 224 225 224 223 224 226 228 227 223 222 226 232 237 245 254 259 266 275 280
220 224 224 229 228 233 233 233 245 251 253 256 253 243 233 241 214 225 228 227 225 227 228 227 226 224 225 229 227 227 228 228 226 225 231 235 241 247 249 255 262 272 274 276
220 224 224 225 228 229 234 237 244 248 248 249 249 243 236 237 227 221 231 230 230 231 231 230 229 230 228 229 231 228 230 230 233 235 239 245 249 251 255 261 269 271 275 279
212 215 220 222 226 231 235 237 241 245 243 247 255 256 241 234 238 236 229 234 233 233 233 234 235 236 237 234 235 235 235 234 239 244 247 247 251 257 264 269 271 276 278 279
218 216 216 220 222 228 234 234 234 242 246 248 249 257 244 246 246 257 246 236 234 236 235 236 237 236 237 239 236 239 242 241 243 247 249 250 253 260 264 270 275 275 276 277
217 218 216 218 221 222 226 232 234 238 241 245 248 256 246 250 259 262 260 237 237 236 239 237 237 237 238 240 240 241 242 243 245 247 248 251 254 260 265 270 273 275 275 277
214 217 216 217 218 223 226 230 231 234 232 246 248 249 252 259 256 261 265 246 240 237 237 238 240 241 241 242 243 243 244 246 250 250 251 256 260 264 268 272 276 277 277 278
216 215 215 218 219 225 226 229 230 232 235 241 246 247 256 267 270 264 264 259 246 243 241 241 242 244 244 246 247 248 249 249 253 255 256 257 261 265 269 271 274 276 279 280
216 217 221 224 224 228 227 227 234 235 234 239 238 246 254 263 264 267 261 257 250 245 243 244 243 243 243 247 249 250 251 250 252 254 256 258 262 264 267 270 273 276 278 279
221 225 225 232 233 234 235 236 236 235 237 238 234 238 243 249 267 269 261 267 260 246 240 242 243 243 244 244 247 248 249 251 253 256 259 261 262 265 267 269 273 274 276 277
224 227 229 234 230 231 238 240 240 239 235 239 239 236 241 244 249 260 259 263 270 257 237 237 242 242 242 243 246 249 251 251 252 253 256 259 262 265 269 272 273 275 276 277
231 235 239 240 244 241 242 242 244 241 239 242 242 231 240 243 247 253 257 260 268 269 241 236 239 242 244 244 245 248 250 253 254 256 257 259 262 265 269 270 271 273 274 276
229 232 237 242 246 248 245 245 247 247 242 236 242 222 234 245 253 256 258 261 265 266 272 239 239 241 243 243 243 246 249 253 255 257 259 260 262 263 265 266 268 270 273 274
227 230 235 240 247 250 250 250 251 253 253 248 250 227 241 245 260 271 268 268 270 273 269 261 234 244 243 245 247 248 249 251 256 257 259 260 260 261 263 265 267 269 271 272
230 232 234 234 236 240 245 249 251 254 256 255 242 248 245 250 258 259 259 260 263 259 257 259 256 246 239 241 242 246 248 249 253 258 257 258 259 262 263 264 266 267 268 270
232 235 238 239 239 241 239 243 251 253 254 255 252 251 254 255 258 257 251 244 249 253 263 268 264 253 238 240 244 244 246 247 248 252 257 259 261 263 264 264 265 266 267 270
235 238 238 237 239 241 242 245 246 252 254 257 255 253 245 252 255 254 252 254 253 254 250 257 258 247 241 240 242 246 247 250 253 254 256 259 261 261 262 262 265 267 270 272
238 239 237 236 237 242 249 243 248 252 252 255 257 256 250 246 248 251 257 259 257 259 252 251 254 253 249 249 242 243 250 251 253 255 258 260 263 264 265 268 268 268 269 271
232 236 239 238 242 247 245 245 243 248 244 246 248 243 245 244 255 249 256 257 252 247 253 251 250 247 246 246 247 246 246 249 253 257 260 265 266 264 264 264 265 268 272 273
237 236 238 242 245 249 246 243 244 245 243 251 251 247 252 263 261 254 260 254 251 250 247 248 249 247 241 240 243 243 249 255 257 256 257 259 262 264 264 266 269 268 268 273
234 236 242 246 247 249 249 245 246 249 252 272 255 250 254 261 261 259 260 261 258 251 250 249 249 252 249 244 242 244 247 253 258 259 260 261 261 263 265 266 266 267 276 279
234 236 241 242 243 243 243 245 252 254 251 257 259 251 251 258 262 265 263 260 259 260 257 258 259 257 252 249 246 247 249 252 254 258 259 259 264 266 267 268 271 274 279 279
234 236 236 239 247 256 254 254 249 244 241 246 254 255 251 253 257 255 259 259 253 251 252 255 255 257 260 258 254 252 253 256 258 259 260 262 266 267 266 266 268 269 274 275
236 233 234 236 237 238 245 246 250 253 255 255 255 257 259 259 260 258 256 257 259 256 252 255 254 254 254 255 256 258 258 258 257 257 260 262 264 266 267 271 274 274 275 276
236 238 240 238 240 241 244 248 251 256 258 256 256 256 257 258 259 258 258 262 268 270 268 262 260 260 258 257 259 261 262 264 264 265 265 266 267 268 268 269 272 275 277 278
231 237 240 244 244 247 248 249 250 252 255 256 254 253 254 255 256 258 261 264 269 271 272 272 270 269 269 268 267 265 264 264 265 266 267 267 268 269 271 273 275 277 280 282
Height
5753 5760 5768 5775 5783 5788 5794 5797 5803 5806 5807 5808 5812 5818 5820 5824 5831 5839 5843 5847 5850 5853 5850 5855 5858 5862 5866 5867 5869 5870 5872 5874 5876 5876 5878 5879 5880 5881 5883 5883 5882 5882 5882 5881
5746 5753 5762 5769 5776 5780 5786 5791 5794 5799 5802 5803 5806 5812 5814 5818 5823 5831 5837 5839 5842 5844 5846 5851 5855 5858 5861 5863 5863 5866 5867 5870 5871 5872 5873 5876 5877 5876 5876 5877 5877 5877 5877 5875
5739 5749 5756 5762 5768 5773 5778 5785 5789 5794 5795 5796 5800 5803 5808 5811 5815 5822 5829 5834 5835 5839 5842 5846 5849 5854 5854 5858 5859 5859 5861 5864 5866 5867 5868 5871 5872 5872 5872 5871 5872 5871 5871 5869
5730 5740 5748 5754 5761 5767 5771 5778 5779 5783 5787 5791 5794 5796 5803 5805 5810 5817 5822 5825 5830 5833 5837 5841 5845 5848 5851 5852 5852 5855 5857 5858 5861 5862 5863 5864 5865 5867 5867 5867 5867 5866 5865 5864
5726 5732 5739 5747 5756 5758 5763 5767 5769 5774 5778 5782 5787 5784 5801 5803 5807 5811 5815 5820 5823 5827 5831 5835 5840 5841 5842 5844 5846 5848 5851 5853 5855 5856 5858 5859 5857 5859 5860 5860 5860 5859 5858 5857
5715 5724 5729 5739 5744 5748 5750 5757 5762 5764 5768 5772 5780 5781 5785 5799 5803 5804 5804 5811 5817 5820 5824 5826 5829 5831 5835 5838 5840 5841 5843 5846 5847 5849 5850 5852 5853 5853 5853 5853 5852 5852 5850 5849
5706 5714 5724 5729 5733 5734 5740 5747 5749 5753 5755 5764 5770 5773 5781 5791 5796 5799 5800 5802 5807 5811 5813 5817 5820 5824 5828 5831 5833 5834 5836 5838 5840 5841 5842 5844 5846 5846 5846 5845 5843 5843 5843 5840
5698 5705 5714 5718 5722 5728 5732 5737 5737 5740 5746 5757 5759 5768 5777 5781 5787 5791 5794 5794 5797 5802 5806 5809 5813 5818 5820 5824 5826 5828 5829 5830 5831 5832 5834 5834 5835 5837 5837 5836 5835 5834 5834 5832
5688 5694 5703 5710 5712 5716 5721 5725 5730 5732 5736 5742 5749 5761 5769 5772 5780 5782 5785 5785 5788 5791 5797 5800 5805 5808 5810 5813 5816 5818 5819 5820 5822 5823 5824 5825 5826 5827 5829 5828 5827 5826 5824 5823
5680 5686 5693 5696 5700 5706 5715 5722 5721 5724 5728 5731 5739 5745 5757 5765 5766 5773 5777 5778 5777 5778 5782 5788 5792 5796 5798 5801 5804 5807 5810 5811 5813 5815 5815 5816 5816 5817 5818 5818 5817 5815 5814 5812
5669 5678 5682 5684 5691 5698 5704 5706 5711 5715 5719 5722 5730 5739 5746 5755 5758 5762 5766 5767 5768 5767 5769 5774 5778 5781 5783 5787 5792 5795 5799 5801 5803 5804 5805 5806 5806 5806 5806 5807 5806 5805 5803 5802
5662 5669 5673 5680 5683 5689 5693 5697 5701 5705 5712 5714 5721 5730 5737 5743 5746 5748 5752 5754 5755 5756 5757 5761 5765 5768 5773 5776 5779 5782 5785 5789 5791 5792 5793 5795 5796 5795 5796 5795 5794 5793 5792 5790
5654 5657 5664 5669 5676 5680 5685 5690 5696 5696 5698 5702 5707 5725 5729 5733 5735 5733 5734 5737 5742 5743 5744 5747 5752 5756 5761 5763 5765 5768 5772 5775 5778 5780 5782 5783 5784 5784 5784 5783 5783 5781 5780 5778
5645 5652 5659 5665 5672 5674 5675 5679 5683 5684 5685 5703 5700 5718 5719 5722 5725 5725 5725 5726 5729 5729 5731 5734 5739 5744 5747 5750 5754 5757 5760 5762 5765 5767 5769 5770 5771 5770 5770 5770 5770 5768 5767 5764
5637 5643 5648 5652 5658 5663 5667 5669 5669 5674 5688 5681 5708 5699 5710 5710 5709 5712 5713 5713 5714 5715 5716 5723 5726 5730 5733 5736 5739 5743 5746 5748 5751 5754 5755 5756 5757 5756 5757 5757 5756 5754 5753 5751
5629 5636 5640 5645 5649 5652 5655 5659 5665 5672 5674 5678 5690 5692 5700 5699 5696 5696 5698 5698 5699 5705 5710 5713 5715 5716 5719 5723 5727 5730 5733 5736 5737 5740 5743 5743 5744 5744 5744 5743 5742 5741 5740 5739
5624 5631 5634 5637 5639 5640 5642 5657 5657 5664 5663 5674 5673 5694 5677 5682 5680 5679 5680 5683 5691 5694 5696 5699 5701 5705 5708 5712 5716 5719 5721 5723 5726 5727 5729 5730 5730 5731 5730 5729 5731 5730 5728 5727
5617 5622 5624 5626 5629 5630 5647 5645 5650 5655 5658 5662 5667 5675 5669 5669 5665 5665 5670 5675 5679 5682 5680 5684 5689 5693 5696 5700 5704 5707 5709 5711 5714 5715 5716 5717 5718 5718 5718 5717 5718 5717 5716 5714
5606 5609 5613 5615 5619 5628 5634 5636 5639 5639 5650 5652 5656 5656 5656 5652 5649 5659 5664 5661 5665 5667 5671 5673 5677 5682 5685 5687 5690 5694 5697 5699 5702 5702 5704 5704 5704 5705 5705 5705 5704 5704 5703 5702
5598 5601 5605 5609 5612 5617 5622 5626 5627 5632 5644 5643 5642 5643 5643 5641 5642 5655 5647 5649 5654 5656 5659 5662 5665 5669 5673 5676 5679 5681 5683 5687 5689 5689 5688 5689 5691 5692 5692 5691 5690 5690 5689 5687
5588 5592 5596 5600 5604 5611 5613 5616 5621 5624 5638 5632 5634 5634 5634 5634 5637 5640 5639 5641 5645 5646 5648 5651 5654 5657 5660 5662 5664 5667 5670 5673 5673 5674 5675 5676 5677 5677 5676 5676 5677 5675 5673 5672
5582 5586 5588 5593 5596 5599 5604 5609 5615 5621 5622 5622 5625 5626 5626 5626 5628 5629 5629 5632 5634 5636 5639 5641 5643 5645 5647 5649 5651 5654 5657 5657 5659 5659 5660 5661 5661 5661 5661 5661 5661 5660 5658 5655
5572 5577 5582 5587 5590 5595 5600 5601 5605 5608 5610 5613 5614 5616 5618 5618 5618 5620 5619 5620 5623 5624 5626 5628 5630 5632 5634 5636 5638 5641 5642 5642 5643 5644 5644 5645 5645 5646 5646 5646 5645 5643 5642 5638
5564 5569 5573 5577 5579 5583 5586 5591 5593 5596 5600 5601 5604 5606 5608 5609 5609 5608 5607 5607 5609 5612 5616 5617 5617 5618 5620 5622 5624 5626 5627 5628 5629 5629 5631 5631 5631 5631 5630 5630 5627 5625 5623 5620
5558 5561 5564 5567 5569 5574 5577 5581 5583 5585 5589 5591 5593 5594 5596 5597 5597 5597 5597 5598 5599 5601 5603 5605 5605 5605 5606 5607 5609 5611 5612 5613 5614 5614 5615 5614 5614 5613 5612 5612 5610 5609 5607 5604
5548 5553 5555 5558 5562 5564 5567 5569 5572 5575 5577 5579 5582 5583 5584 5584 5585 5586 5588 5589 5590 5591 5592 5593 5593 5594 5594 5595 5595 5595 5596 5597 5597 5598 5598 5597 5597 5597 5597 5596 5594 5592 5590 5588